Location: Shepherdstown, WV
(39.4326°N, 77.8042°W)
Time: 06:33:38
(UTC-04:00)

Vanguard 1 - Pass Details

Date: 06 August 2021
Orbit: 652 x 3831 km, 34.3° (Epoch: 24 September)

Event Time Altitude Azimuth Distance (km) Brightness Sun altitude
Rises 15:15:34 0° 270° (W) 3,516 13.3 55.5°
Reaches altitude 10° 15:17:58 10° 259° (W) 2,815 13.1 55.1°
Maximum altitude 15:23:55 31° 198° (SSW) 2,248 12.9 54.1°
Drops below altitude 10° 15:33:33 10° 142° (SE) 4,633 13.6 52.5°
Sets 15:38:51 0° 135° (SE) 6,213 14.0 51.6°
